[[{"header":{"parameterUnit":"m.s-1","parameterCategory":1,"la1":30.2992,"la2":30.254,"lo1":-89.0895,"lo2":-89.0443,"dy":0.0025,"dx":0.0025,"nx":19,"ny":19,"refTime":"2026-03-25T21:00:00:Z","depth":0,"parameterNumber":2,"parameterNumberName":"U-component_of_WINDS"},"data":[0,0,0,1.0359,1.036,1.0438,1.0438,1.0541,1.0542,0,0,0,0,0,0,0,0,0,0,0,1.0336,1.0337,1.0358,1.036,1.0438,1.0438,1.0541,1.0542,0,0,0,0,0,0,0,0,0,0,0,1.0336,1.0337,1.0338,1.0361,1.0438,1.0438,1.0541,1.0481,0,0,0,0,0,0,0,0,0,0,1.0405,1.0385,1.0337,1.0338,1.0361,1.0438,1.0438,1.0478,1.0485,1.0507,0,1.0526,0,1.0535,1.0549,1.0549,0,0,0,1.036,1.0379,1.04,1.0338,1.0362,1.0438,1.0403,1.0482,1.0489,1.0516,1.0527,1.0531,1.0537,1.055,1.055,1.0676,1.0677,0,0,1.0356,1.0351,1.0394,1.0405,1.0391,1.04,1.0405,1.0486,1.0499,1.0527,1.0533,1.0539,1.055,1.0551,1.0676,1.0677,0,0,0,1.0344,1.0348,1.0366,1.04,1.0414,1.0403,1.0408,1.0495,1.0502,1.0534,1.054,1.0551,1.0552,1.0675,1.0676,1.0701,0,0,0,1.0341,1.0341,1.0364,1.0362,1.0413,1.0455,1.0415,1.0496,1.0505,1.054,1.0551,1.0553,1.0674,1.0676,1.0699,1.0714,0,0,0,1.0331,1.034,1.0351,1.0361,1.0395,1.0454,1.0465,1.0498,1.0509,1.0549,1.0554,1.0674,1.0675,1.0697,1.0711,1.0746,0,0,0,1.0319,1.0372,1.0351,1.0413,1.0394,1.0468,1.0465,1.0521,1.0558,1.0552,1.0675,1.0676,1.0696,1.0709,1.0744,1.0775,1.0787,0,0,1.0383,1.0379,1.0416,1.04,1.0477,1.0457,1.0538,1.0578,1.0587,1.0646,1.065,1.07,1.071,1.0746,1.0857,1.0867,0,0,0,1.0435,1.0461,1.0483,1.0518,1.0549,1.0578,1.0605,1.062,1.0671,1.0616,1.0722,1.0728,1.0749,1.0765,1.0773,1.0791,1.0683,1.0682,1.0682,1.0518,1.0526,1.0588,1.0606,1.0641,1.0669,1.0699,1.0724,1.0722,1.0747,1.0765,1.0832,1.0849,1.0855,1.0875,1.0782,1.0782,1.0782,1.0782,1.0613,1.0652,1.0649,1.0708,1.0717,1.0767,1.0797,1.0794,1.0843,1.0818,1.0837,1.081,1.0866,1.0883,1.0784,1.0783,1.0783,1.0783,1.0783,1.0669,1.069,1.0707,1.076,1.08,1.0817,1.0864,1.087,1.0877,1.0895,1.0916,1.0915,1.0916,1.0904,1.0905,1.0905,1.0905,1.0905,1.0905,1.0721,1.0739,1.0778,1.0816,1.084,1.0873,1.0903,1.0928,1.0957,1.0958,1.0958,1.0955,1.0869,1.0848,1.0909,1.0908,1.0908,1.0908,1.0907,1.0815,1.0795,1.0854,1.0878,1.0925,1.0965,1.0973,1.1023,1.1044,1.1067,1.106,1.0995,1.0992,1.0986,1.0968,1.1057,1.1057,1.1057,1.1057,1.0863,1.0862,1.0924,1.0963,1.1002,1.1015,1.1083,1.1108,1.113,1.1144,1.1132,1.111,1.1103,1.1104,1.1095,1.1079,1.1194,1.1194,1.1194,1.0922,1.0925,1.0981,1.1002,1.1039,1.1071,1.1136,1.1181,1.1203,1.12,1.1156,1.115,1.1113,1.1101,1.1096,1.1082,1.1052,0,0]},{"header":{"parameterUnit":"m.s-1","parameterCategory":1,"la1":30.2992,"la2":30.254,"lo1":-89.0895,"lo2":-89.0443,"dy":0.0025,"dx":0.0025,"nx":19,"ny":19,"refTime":"2026-03-25T21:00:00:Z","depth":0,"parameterNumber":3,"parameterNumberName":"V-component_of_WINDS"},"data":[0,0,0,-0.1411,-0.1411,-0.1411,-0.1411,-0.1409,-0.1409,0,0,0,0,0,0,0,0,0,0,0,-0.1411,-0.1411,-0.1411,-0.1411,-0.1411,-0.1411,-0.1409,-0.1409,0,0,0,0,0,0,0,0,0,0,0,-0.1411,-0.1411,-0.1411,-0.1411,-0.1411,-0.1411,-0.1409,-0.141,0,0,0,0,0,0,0,0,0,0,-0.1411,-0.141,-0.1411,-0.1411,-0.1411,-0.1411,-0.1411,-0.141,-0.141,-0.1409,0,-0.1409,0,-0.1409,-0.1409,-0.1409,0,0,0,-0.1412,-0.141,-0.141,-0.1411,-0.1411,-0.1411,-0.1411,-0.141,-0.141,-0.1409,-0.1409,-0.1409,-0.1409,-0.1409,-0.1409,-0.1406,-0.1406,0,0,-0.1412,-0.1411,-0.1411,-0.141,-0.1411,-0.1411,-0.1411,-0.141,-0.1409,-0.1409,-0.1409,-0.1409,-0.1409,-0.1409,-0.1406,-0.1406,0,0,0,-0.1412,-0.1411,-0.1411,-0.141,-0.141,-0.1411,-0.1411,-0.1409,-0.141,-0.1409,-0.1409,-0.1409,-0.1409,-0.1406,-0.1406,-0.1404,0,0,0,-0.1412,-0.1411,-0.1411,-0.1411,-0.1411,-0.141,-0.1411,-0.141,-0.141,-0.1409,-0.1409,-0.1409,-0.1406,-0.1406,-0.1404,-0.1404,0,0,0,-0.1411,-0.1411,-0.1411,-0.1411,-0.1411,-0.141,-0.141,-0.141,-0.141,-0.1409,-0.1409,-0.1406,-0.1406,-0.1404,-0.1404,-0.1403,0,0,0,-0.1411,-0.1409,-0.1411,-0.1409,-0.1411,-0.1409,-0.141,-0.1409,-0.1409,-0.1409,-0.1406,-0.1406,-0.1404,-0.1404,-0.1403,-0.1402,-0.1401,0,0,-0.1408,-0.1409,-0.1408,-0.1409,-0.1407,-0.1409,-0.1407,-0.1407,-0.1407,-0.1406,-0.1406,-0.1404,-0.1404,-0.1403,-0.1398,-0.1398,0,0,0,-0.1406,-0.1406,-0.1405,-0.1405,-0.1405,-0.1405,-0.1406,-0.1406,-0.1405,-0.1407,-0.1404,-0.1403,-0.1403,-0.1402,-0.1402,-0.1401,-0.1406,-0.1406,-0.1406,-0.1401,-0.1402,-0.1401,-0.1402,-0.1402,-0.1402,-0.1402,-0.1402,-0.1403,-0.1402,-0.1402,-0.1399,-0.1398,-0.1398,-0.1398,-0.1401,-0.1401,-0.1401,-0.1401,-0.1397,-0.1396,-0.1398,-0.1397,-0.1398,-0.1397,-0.1398,-0.1399,-0.1398,-0.1399,-0.1399,-0.14,-0.1398,-0.1397,-0.1401,-0.1401,-0.1401,-0.1401,-0.1401,-0.1394,-0.1394,-0.1394,-0.1394,-0.1394,-0.1395,-0.1394,-0.1395,-0.1396,-0.1396,-0.1395,-0.1395,-0.1396,-0.1396,-0.1396,-0.1396,-0.1396,-0.1396,-0.1396,-0.139,-0.1391,-0.139,-0.1391,-0.1391,-0.1391,-0.1392,-0.1392,-0.1393,-0.1393,-0.1393,-0.1394,-0.1397,-0.1398,-0.1395,-0.1395,-0.1395,-0.1395,-0.1395,-0.1386,-0.1387,-0.1386,-0.1387,-0.1387,-0.1387,-0.1389,-0.1389,-0.1389,-0.1389,-0.139,-0.1392,-0.1392,-0.1393,-0.1393,-0.139,-0.139,-0.139,-0.139,-0.1383,-0.1383,-0.1383,-0.1383,-0.1384,-0.1385,-0.1384,-0.1385,-0.1386,-0.1386,-0.1387,-0.1388,-0.1388,-0.1389,-0.1389,-0.139,-0.1385,-0.1385,-0.1385,-0.138,-0.1381,-0.138,-0.1382,-0.1382,-0.1383,-0.1382,-0.1383,-0.1384,-0.1385,-0.1387,-0.1387,-0.1388,-0.1389,-0.139,-0.139,-0.1391,0,0]}]]